Weather History for Cheyenne, WY

Change the Weather History Date:

Thursday, December 6, 2012

  Actual Average Record
Temperature  
Mean Temperature 35 °F 28 °F  
Max Temperature 44 °F 38 °F 67 °F (1939)
Min Temperature 26 °F 18 °F -19 °F (1972)
Degree Days  
Heating Degree Days 30 37  
Month to date heating degree days 132 219  
Since 1 July heating degree days 1673 1967  
Cooling Degree Days 0 0  
Month to date cooling degree days 0 0  
Year to date cooling degree days 568 348  
Moisture  
Dew Point 25 °F    
Average Humidity 63    
Maximum Humidity 85    
Minimum Humidity 41    
Precipitation  
Precipitation 0.00 in 0.02 in 0.27 in (1927)
Month to date precipitation 0.00 0.11  
Year to date precipitation 9.58 15.56  
Snow  
Snow 0.00 in 0.30 in 4.70 in (2009)
Month to date snowfall 0.0 1.7  
Since 1 July snowfall 10.6 16.0  
Snow Depth 0.00 in    
Sea Level Pressure  
Sea Level Pressure 29.94 in    
Wind  
Wind Speed 12 mph (South)    
Max Wind Speed 23 mph    
Max Gust Speed 28 mph    
Visibility 10 miles    
Events      
T = Trace of Precipitation, MM = Missing Value Source: NWS Daily Summary

Daily Weather History Graph

Daily Weather History Graph

Search for Another Location

Airport:

Trip Planner

Search our weather history database for the weather conditions in past years. The results will help you decide how hot, cold, wet, or windy it might be!

Date:

Astronomy

Dec. 06, 2012 Rise Set
Actual Time 7:10 AM MST 4:30 PM MST
Civil Twilight 6:39 AM MST 5:01 PM MST
Nautical Twilight 6:05 AM MST 5:35 PM MST
Astronomical Twilight 5:31 AM MST 6:09 PM MST
Moon No Moon Rise 12:01 PM MST (12/6)
Length of Visible Light 10h 21m
Length of Day
9h 19m
Waning Gibbous, 48% of the Moon is Illuminated
Dec 6
Waning Gibbous
Dec 13
New
Dec 19
First Quarter
Dec 28
Full
Jan 4
Last Quarter

Hourly Weather History & Observations

Time (MST) Temp. Windchill Dew Point Humidity Pressure Visibility Wind Dir Wind Speed Gust Speed Precip Events Conditions
12:53 AM 42.1 °F 36.1 °F 25.0 °F 51% 29.81 in 10.0 mi NW 10.4 mph - N/A   Clear
1:53 AM 39.9 °F 31.1 °F 28.0 °F 63% 29.83 in 10.0 mi NNW 17.3 mph 23.0 mph N/A   Clear
2:53 AM 39.0 °F 31.0 °F 28.0 °F 65% 29.86 in 10.0 mi North 13.8 mph - N/A   Clear
3:53 AM 37.9 °F 28.2 °F 28.0 °F 68% 29.86 in 10.0 mi NNW 18.4 mph 24.2 mph N/A   Clear
4:53 AM 37.0 °F 28.9 °F 27.0 °F 67% 29.89 in 10.0 mi North 12.7 mph - N/A   Clear
5:53 AM 37.0 °F 28.1 °F 27.0 °F 67% 29.91 in 10.0 mi North 15.0 mph 21.9 mph N/A   Clear
6:53 AM 35.1 °F 25.9 °F 27.0 °F 72% 29.95 in 10.0 mi NNW 13.8 mph 20.7 mph N/A   Clear
7:42 AM 32.0 °F 25.6 °F 28.4 °F 87% 30.01 in 10.0 mi NNE 6.9 mph - N/A   Overcast
7:50 AM 32.0 °F 25.6 °F 28.4 °F 87% 30.02 in 10.0 mi NE 6.9 mph - N/A   Overcast
7:53 AM 32.0 °F 25.6 °F 28.9 °F 88% 29.99 in 10.0 mi NE 6.9 mph - N/A   Overcast
8:28 AM 30.2 °F 25.4 °F 28.4 °F 93% 30.02 in 10.0 mi NE 4.6 mph - N/A   Overcast
8:53 AM 32.0 °F 27.5 °F 27.0 °F 82% 30.01 in 10.0 mi NNE 4.6 mph - N/A   Mostly Cloudy
9:21 AM 33.8 °F 30.8 °F 24.8 °F 70% 30.02 in 10.0 mi East 3.5 mph - N/A   Scattered Clouds
9:53 AM 33.1 °F 26.9 °F 25.0 °F 72% 30.00 in 10.0 mi SSE 6.9 mph - N/A   Scattered Clouds
10:03 AM 33.8 °F 26.4 °F 26.6 °F 75% 30.03 in 10.0 mi SE 9.2 mph - N/A   Mostly Cloudy
10:45 AM 35.6 °F 28.6 °F 24.8 °F 65% 30.01 in 10.0 mi South 9.2 mph - N/A   Mostly Cloudy
10:53 AM 36.0 °F 29.6 °F 25.0 °F 64% 29.98 in 10.0 mi South 8.1 mph - N/A   Mostly Cloudy
11:00 AM 37.4 °F 30.3 °F 24.8 °F 60% 30.01 in 10.0 mi SSE 10.4 mph - N/A   Scattered Clouds
11:28 AM 37.4 °F 28.5 °F 26.6 °F 65% 29.99 in 10.0 mi South 15.0 mph - N/A   Mostly Cloudy
11:53 AM 37.0 °F 28.9 °F 27.0 °F 67% 29.93 in 10.0 mi South 12.7 mph - N/A   Overcast
12:53 PM 37.9 °F 28.5 °F 27.0 °F 65% 29.91 in 10.0 mi South 17.3 mph - N/A   Overcast
1:53 PM 39.0 °F 30.3 °F 27.0 °F 62% 29.88 in 10.0 mi South 16.1 mph - N/A   Overcast
2:19 PM 39.2 °F 31.2 °F 26.6 °F 61% 29.90 in 10.0 mi SSW 13.8 mph 21.9 mph N/A   Scattered Clouds
2:53 PM 37.9 °F 27.3 °F 28.0 °F 68% 29.87 in 10.0 mi SSW 21.9 mph 27.6 mph N/A   Clear
3:53 PM 37.0 °F 27.7 °F 26.1 °F 65% 29.88 in 10.0 mi South 16.1 mph 21.9 mph N/A   Clear
4:53 PM 34.0 °F 26.6 °F 25.0 °F 70% 29.91 in 10.0 mi South 9.2 mph - N/A   Clear
5:53 PM 33.1 °F 27.7 °F 24.1 °F 70% 29.91 in 10.0 mi South 5.8 mph - N/A   Clear
6:53 PM 32.0 °F 23.0 °F 24.1 °F 73% 29.92 in 10.0 mi SSW 11.5 mph - N/A   Clear
7:53 PM 28.9 °F 25.2 °F 21.0 °F 72% 29.95 in 10.0 mi SSE 3.5 mph - N/A   Clear
8:53 PM 30.0 °F 20.0 °F 21.0 °F 69% 29.95 in 10.0 mi SSW 12.7 mph - N/A   Clear
9:53 PM 28.0 °F 18.1 °F 19.9 °F 72% 29.94 in 10.0 mi SSW 11.5 mph - N/A   Clear
10:53 PM 28.0 °F 18.6 °F 19.0 °F 69% 29.90 in 10.0 mi South 10.4 mph - N/A   Clear
11:53 PM 28.0 °F - 19.0 °F 69% 29.88 in 10.0 mi Calm Calm - N/A   Clear